Location: Hardenberg
(52.5670°N, 6.6170°E)
Time: 07:56:29
(UTC+02:00)

ISS - Pass Details

Date: 21 May 2021
Orbit: 417 x 422 km, 51.6° (Epoch: 12 June)

Event Time Altitude Azimuth Distance (km) Brightness Sun altitude
Rises 23:43:25 0° 274° (W) 2,368 0.5 -13.5°
Reaches altitude 10° 23:45:31 10° 273° (W) 1,504 -0.6 -13.6°
Maximum altitude 23:48:53 71° 189° (S) 450 -3.8 -13.8°
Enters shadow 23:51:22 17° 107° (ESE) 1,152 -1.9 -14.0°
